Location: Unspecified
(0.0000°N, 0.0000°E)
Time: 14:41:58
(UTC+00:00)

deb Midas V - Pass Details

Date: 16 April 2026
Orbit: 2771 x 3389 km, 86.6° (Epoch: 16 May)

Event Time Altitude Azimuth Distance (km) Brightness Sun altitude
Rises 19:45:05 0° 343° (NNW) 7,367 ? -25.9°
Reaches altitude 10° 19:49:53 10° 336° (NNW) 6,307 ? -27.1°
Maximum altitude 20:05:02 38° 274° (W) 4,235 ? -30.8°
Drops below altitude 10° 20:19:25 10° 211° (SSW) 5,899 ? -34.3°
Sets 20:23:53 0° 202° (SSW) 6,849 ? -35.4°
